Weather History for CWSA - November, 2012

Change the Weather History Date:

Friday, November 30, 2012

  Actual Average Record
Temperature  
Mean Temperature 34 °F -  
Max Temperature 41 °F 43 °F 57 °F (2011)
Min Temperature 28 °F 34 °F 23 °F (2013)
Degree Days  
Heating Degree Days 30    
Moisture  
Dew Point 25 °F    
Average Humidity 70    
Maximum Humidity 93    
Minimum Humidity 36    
Precipitation  
Precipitation 0.08 in - - ()
Sea Level Pressure  
Sea Level Pressure 30.09 in    
Wind  
Wind Speed 23 mph ()    
Max Wind Speed 37 mph    
Max Gust Speed 45 mph    
Visibility 6.8 miles    
Events Rain , Snow    
Averages and records for this station are not official NWS values.
T = Trace of Precipitation, MM = Missing Value Source: Averaged Metar Reports

Daily Weather History Graph

Daily Weather History Graph

Search for Another Location

Airport or City:

Trip Planner

Search our weather history database for the weather conditions in past years. The results will help you decide how hot, cold, wet, or windy it might be!

Date:

Astronomy

Nov. 30, 2012 Rise Set
Actual Time 7:13 AM AST 4:23 PM AST
Civil Twilight 6:41 AM AST 4:55 PM AST
Nautical Twilight 6:05 AM AST 5:31 PM AST
Astronomical Twilight 5:30 AM AST 6:06 PM AST
Moon 6:14 PM AST (11/30) 8:42 AM AST (11/30)
Length of Visible Light 10h 14m
Length of Day
9h 09m
Waning Gibbous, 96% of the Moon is Illuminated
Nov 30
Waning Gibbous
Dec 6
Last Quarter
Dec 13
New
Dec 20
First Quarter
Dec 28
Full

Hourly Weather History & Observations

Time (AST) Temp. Windchill Dew Point Humidity Pressure Visibility Wind Dir Wind Speed Gust Speed Precip Events Conditions
12:00 AM 39.2 °F 27.8 °F 23.0 °F 52% 30.00 in 9.0 mi West 27.6 mph 38.0 mph N/A   Mostly Cloudy
1:00 AM 39.2 °F 27.8 °F 21.2 °F 49% 30.00 in 9.0 mi West 27.6 mph 35.7 mph N/A   Partly Cloudy
2:00 AM 40 °F - 24 °F 40% 30.00 in 9 mi West 18.4 mph - -  
2:00 AM 39.2 °F 30.2 °F 24.8 °F 56% 30.00 in 9.0 mi West 17.3 mph 25.3 mph N/A   Partly Cloudy
3:00 AM 41.0 °F 31.6 °F 26.6 °F 57% 29.96 in 9.0 mi WSW 20.7 mph - N/A   Overcast
3:24 AM 41.0 °F 30.7 °F 28.4 °F 61% 29.95 in 9.0 mi WSW 25.3 mph 32.2 mph N/A Rain Light Rain
3:27 AM 41.0 °F 30.5 °F 28.4 °F 61% 29.95 in 9.0 mi WSW 26.5 mph 34.5 mph N/A Rain Light Rain
3:52 AM 37.4 °F 27.5 °F 32.0 °F 81% 29.95 in 6.0 mi WNW 18.4 mph 33.4 mph N/A Rain Light Rain
3:53 AM 37.4 °F 27.2 °F 32.0 °F 81% 29.95 in 6.0 mi WNW 19.6 mph 33.4 mph N/A Rain Light Rain
3:57 AM 35.6 °F 23.4 °F 32.0 °F 87% 29.96 in 2.0 mi WNW 25.3 mph - N/A Rain Rain
3:58 AM 35.6 °F 23.4 °F 30.2 °F 81% 29.96 in 1.4 mi WNW 25.3 mph - N/A Rain Heavy Rain
4:00 AM 33.8 °F 21.6 °F 30.2 °F 87% 29.97 in 0.8 mi WNW 23.0 mph 28.8 mph N/A Rain Heavy Rain
4:01 AM 33.8 °F 21.9 °F 30.2 °F 87% 29.97 in 0.6 mi WNW 21.9 mph 28.8 mph N/A Rain Heavy Rain
4:14 AM 33.8 °F 20.5 °F 32.0 °F 93% 29.96 in 1.1 mi WNW 27.6 mph - N/A Rain Heavy Rain
4:18 AM 35.6 °F 24.0 °F 32.0 °F 87% 29.96 in 3.0 mi WNW 23.0 mph 32.2 mph N/A Rain Heavy Rain
4:22 AM 35.6 °F 25.5 °F 32.0 °F 87% 29.95 in 6.0 mi West 17.3 mph 32.2 mph N/A Rain Heavy Rain
4:27 AM 35.6 °F 25.9 °F 32.0 °F 87% 29.95 in 9.0 mi West 16.1 mph 24.2 mph N/A Rain Light Rain
4:37 AM 35.6 °F 26.2 °F 30.2 °F 81% 29.94 in 9.0 mi West 15.0 mph 20.7 mph N/A   Unknown
4:52 AM 39.2 °F 28.5 °F 32.0 °F 75% 29.94 in 9.0 mi West 24.2 mph 34.5 mph N/A   Overcast
5:00 AM 40 °F - 32 °F 65% 29.95 in 9 mi West 26.5 mph - -   Overcast
5:00 AM 39.2 °F 27.6 °F 32.0 °F 75% 29.95 in 9.0 mi West 28.8 mph 35.7 mph N/A   Overcast
5:02 AM 39.2 °F 26.6 °F 33.8 °F 81% 29.94 in 6.0 mi West 34.5 mph 41.4 mph N/A   Overcast
5:06 AM 37.4 °F 25.9 °F 33.8 °F 87% 29.95 in 3.0 mi West 25.3 mph 41.4 mph N/A   Unknown
5:07 AM 37.4 °F 25.6 °F 33.8 °F 87% 29.95 in 2.5 mi West 26.5 mph 41.4 mph N/A Rain Light Rain
5:22 AM 37.4 °F 25.4 °F 33.8 °F 87% 29.96 in 9.0 mi NW 27.6 mph 38.0 mph N/A Rain Light Rain
5:40 AM 37.4 °F 26.1 °F 32.0 °F 81% 29.97 in 9.0 mi NW 24.2 mph 31.1 mph N/A   Overcast
5:46 AM 35.6 °F 23.7 °F 30.2 °F 81% 29.97 in 9.0 mi WNW 24.2 mph 32.2 mph N/A   Overcast
5:47 AM 35.6 °F 23.7 °F 32.0 °F 87% 29.97 in 9.0 mi WNW 24.2 mph 32.2 mph N/A   Overcast
5:51 AM 35.6 °F 23.2 °F 30.2 °F 81% 29.97 in 7.0 mi NW 26.5 mph 33.4 mph N/A   Overcast
5:52 AM 35.6 °F 23.0 °F 30.2 °F 81% 29.97 in 5.0 mi NW 27.6 mph 33.4 mph N/A   Unknown
6:00 AM 35.6 °F 24.2 °F 30.2 °F 81% 29.97 in 4.0 mi WNW 21.9 mph 36.8 mph N/A   Unknown
6:07 AM 35.6 °F 23.0 °F 30.2 °F 81% 29.98 in 7.0 mi WNW 27.6 mph 33.4 mph N/A Snow Light Snow
6:21 AM 35.6 °F 23.7 °F 30.2 °F 81% 29.98 in 9.0 mi WNW 24.2 mph 33.4 mph N/A Snow Light Snow
7:00 AM 33.8 °F 21.0 °F 28.4 °F 81% 30.01 in 3.0 mi WNW 25.3 mph 34.5 mph N/A Snow Light Snow
7:01 AM 33.8 °F 21.9 °F 28.4 °F 81% 30.00 in 2.5 mi WNW 21.9 mph 34.5 mph N/A Snow Light Snow
7:20 AM 33.8 °F 20.8 °F 28.4 °F 81% 30.01 in 3.5 mi WNW 26.5 mph 33.4 mph N/A Snow Light Snow
7:29 AM 33.8 °F 20.3 °F 28.4 °F 81% 30.02 in 6.0 mi WNW 28.8 mph 34.5 mph N/A Snow Light Snow
7:43 AM 33.8 °F 20.5 °F 28.4 °F 81% 30.03 in 2.4 mi WNW 27.6 mph 34.5 mph N/A Snow Light Snow
7:51 AM 32.0 °F 18.4 °F 26.6 °F 80% 30.03 in 2.0 mi WNW 26.5 mph 38.0 mph N/A Snow Light Snow
8:00 AM 32 °F - 27 °F 74% 30.05 in 3 mi NW 27.6 mph - -   Unknown Precipitation
8:00 AM 32.0 °F 17.9 °F 26.6 °F 80% 30.05 in 3.5 mi NW 28.8 mph 34.5 mph N/A Snow Light Snow
8:14 AM 32.0 °F 18.4 °F 24.8 °F 75% 30.05 in 9.0 mi NW 26.5 mph 36.8 mph N/A   Overcast
8:30 AM 32.0 °F 18.1 °F 24.8 °F 75% 30.05 in 9.0 mi WNW 27.6 mph 36.8 mph N/A Snow Light Snow
8:38 AM 32.0 °F 17.4 °F 24.8 °F 75% 30.06 in 6.0 mi NW 31.1 mph 41.4 mph N/A Snow Light Snow
8:46 AM 32.0 °F 17.2 °F 26.6 °F 80% 30.07 in 2.5 mi NW 32.2 mph 38.0 mph N/A Snow Light Snow
9:00 AM 30.2 °F 15.2 °F 24.8 °F 80% 30.09 in 2.2 mi WNW 29.9 mph 40.3 mph N/A Snow Light Snow
9:09 AM 30.2 °F 15.9 °F 24.8 °F 80% 30.08 in 1.4 mi WNW 26.5 mph 40.3 mph N/A Snow Light Snow
9:18 AM 30.2 °F 14.9 °F 23.0 °F 75% 30.09 in 3.0 mi WNW 31.1 mph 40.3 mph N/A Snow Light Snow
9:46 AM 30.2 °F 14.5 °F 21.2 °F 69% 30.10 in 9.0 mi WNW 33.4 mph 44.9 mph N/A Snow Light Snow
9:58 AM 30.2 °F 14.3 °F 19.4 °F 64% 30.11 in 8.0 mi WNW 34.5 mph 43.7 mph N/A Snow Light Snow
10:00 AM 32.0 °F 16.3 °F 19.4 °F 60% 30.11 in 9.0 mi WNW 36.8 mph 43.7 mph N/A Snow Light Snow
10:18 AM 32.0 °F 17.2 °F 19.4 °F 60% 30.12 in 9.0 mi WNW 32.2 mph 43.7 mph N/A   Mostly Cloudy
11:00 AM 30 °F - 15 °F 40% 30.14 in 9 mi WNW 29.9 mph - -  
11:00 AM 30.2 °F 15.4 °F 15.8 °F 55% 30.14 in 9.0 mi West 28.8 mph 40.3 mph N/A   Mostly Cloudy
2:00 PM 29 °F - 18 °F 51% 30.18 in 9 mi WNW 25.3 mph - -   Unknown Precipitation
2:00 PM 30.2 °F 16.5 °F 17.6 °F 60% 30.18 in 9.0 mi WNW 24.2 mph 34.5 mph N/A   Overcast
3:00 PM 30.2 °F 16.5 °F 17.6 °F 60% 30.20 in 9.0 mi NW 24.2 mph 31.1 mph N/A   Overcast
4:00 PM 30.2 °F 17.1 °F 17.6 °F 60% 30.23 in 9.0 mi NW 21.9 mph 28.8 mph N/A   Overcast
5:00 PM 30 °F - 17 °F 45% 30.26 in 9 mi WNW 20.7 mph - -   Overcast
5:00 PM 30.2 °F 17.4 °F 17.6 °F 60% 30.26 in 9.0 mi WNW 20.7 mph 29.9 mph N/A   Overcast
6:00 PM 30.2 °F 17.1 °F 17.6 °F 60% 30.28 in 9.0 mi WNW 21.9 mph 28.8 mph N/A   Overcast
7:00 PM 30.2 °F 17.8 °F 15.8 °F 55% 30.31 in 9.0 mi WNW 19.6 mph 28.8 mph N/A   Overcast
8:00 PM 31 °F - 17 °F 42% 30.32 in 9 mi NW 18.4 mph - -   Overcast
8:00 PM 30.2 °F 17.8 °F 17.6 °F 60% 30.32 in 9.0 mi NW 19.6 mph - N/A   Overcast
9:00 PM 30.2 °F 18.1 °F 17.6 °F 60% 30.35 in 9.0 mi NW 18.4 mph 24.2 mph N/A   Overcast
9:02 PM 30.2 °F 17.8 °F 17.6 °F 60% 30.35 in 9.0 mi WNW 19.6 mph - N/A Snow Light Snow
9:53 PM 30.2 °F 17.4 °F 17.6 °F 60% 30.36 in 8.0 mi WNW 20.7 mph - N/A Snow Light Snow
10:00 PM 30.2 °F 17.8 °F 19.4 °F 64% 30.36 in 5.0 mi NW 19.6 mph 25.3 mph N/A Snow Light Snow
10:41 PM 28.4 °F 14.7 °F 15.8 °F 59% 30.37 in 9.0 mi WNW 21.9 mph 27.6 mph N/A   Overcast
11:00 PM 29 °F - 13 °F 36% 30.38 in 9 mi WNW 18.4 mph - -   Overcast
11:00 PM 28.4 °F 16.2 °F 12.2 °F 51% 30.38 in 9.0 mi West 17.3 mph 28.8 mph N/A   Overcast
11:21 PM 30.2 °F 18.9 °F 15.8 °F 55% 30.37 in 9.0 mi WNW 16.1 mph 25.3 mph N/A   Overcast
11:28 PM 30.2 °F 17.8 °F 15.8 °F 55% 30.37 in 9.0 mi NW 19.6 mph 27.6 mph N/A Snow Light Snow
11:33 PM 30.2 °F 16.8 °F 15.8 °F 55% 30.37 in 9.0 mi NW 23.0 mph - N/A   Overcast
11:59 PM 30.2 °F 18.1 °F 15.8 °F 55% 30.38 in 9.0 mi NW 18.4 mph 27.6 mph N/A Snow Light Snow